Home   Weather   Bamenda   Past weeks

Flag for Cameroon Past Weather in Bamenda, Cameroon — Yesterday and Last 2 Weeks

Now
84 °F

Scattered clouds.


Feels Like: 94 °F
Forecast: 50 / 93 °F
Wind: No wind

Location: Douala Obs.

Current Time: Feb 21, 2017 at 11:06:49 am

Latest Report: Feb 21, 2017 at 9:00 am


Visibility: 1 mi

Pressure: 29.89 "Hg (25.98 "Hg at 1240m altitude)

Humidity: 79%

Dew Point: 77 °F

Location of BamendaLocation

Past Weather in Bamenda — Graph

°F

Bamenda Temperature Yesterday

Maximum temperature yesterday: 91 °F (at 2:00 pm)
Minimum temperature yesterday: 77 °F (at 3:00 am)
Average temperature yesterday: 83 °F

High & Low Weather Summary for the Past Weeks

 TemperatureHumidityPressure
High95 °F (Feb 13, 2:00 pm)100% (Feb 7, 2:00 am)29.92 "Hg (Feb 7, 2:00 am)
Low73 °F (Feb 17, 5:00 am)49% (Feb 9, 3:00 pm)29.68 "Hg (Feb 10, 4:00 pm)
Average84 °F81%29.80 "Hg
* Reported Feb 6 9:00 am — Feb 21 9:00 am, Bamenda, Weather by CustomWeather, © 2017

Note: Actual official high and low records may vary slightly from our data, if they occured in-between our weather recording intervals... More about our weather records

Advertising

Bamenda Weather History for the Previous 24 Hours

Scroll right to see more
 ConditionsComfort  
Time TempWeatherWind HumidityBarometerVisibility
9:00 am
Tue, Feb 21
84 °FScattered clouds.No wind79%29.89 "Hg1 mi
8:00 am81 °FFog.No wind94%29.89 "Hg1 mi
7:00 am79 °FFog.2 mph94%29.86 "Hg1 mi
6:00 am79 °FFog.No wind94%29.83 "Hg2 mi
5:00 am79 °FPassing clouds.No wind94%29.83 "Hg4 mi
4:00 am79 °FPassing clouds.No wind100%29.80 "Hg4 mi
3:00 am79 °FPassing clouds.No wind94%29.83 "Hg4 mi
2:00 am79 °FPassing clouds.No wind94%29.83 "Hg5 mi
1:00 am81 °FPassing clouds.No wind89%29.86 "Hg5 mi
12:00 am81 °FPassing clouds.No wind94%29.86 "Hg5 mi
11:00 pm
Mon, Feb 20
82 °FPassing clouds.No wind84%29.86 "Hg5 mi
10:00 pm82 °FPassing clouds.No wind84%29.86 "Hg5 mi
9:00 pm82 °FPassing clouds.5 mph89%29.86 "Hg4 mi
8:00 pm82 °FPassing clouds.6 mph84%29.83 "Hg4 mi
7:00 pm84 °FPassing clouds.7 mph79%29.80 "Hg2 mi
6:00 pm86 °FScattered clouds.8 mph75%29.80 "Hg2 mi
5:00 pm88 °FScattered clouds.10 mph66%29.77 "Hg2 mi
4:00 pm90 °FScattered clouds.12 mph63%29.77 "Hg2 mi
3:00 pm91 °FScattered clouds.8 mph59%29.80 "Hg2 mi
2:00 pm91 °FPartly sunny.7 mph59%29.83 "Hg2 mi
1:00 pm90 °FPartly sunny.7 mph59%29.86 "Hg2 mi
12:00 pm90 °FPartly sunny.5 mph63%29.89 "Hg2 mi
11:00 am88 °FPartly sunny.No wind70%29.89 "Hg2 mi
Weather by CustomWeather, © 2017

See weather overviewHow to use our weather pages